Location: Iesi
(43.5167°N, 13.2333°E)
Time: 01:55:01
(UTC+00:00)

Cosmos 1850 Rocket - Pass Details

Date: 08 August 2020
Orbit: 755 x 784 km, 74.0° (Epoch: 19 September)

Event Time Altitude Azimuth Distance (km) Brightness Sun altitude
Exits shadow 21:14:22 72° 156° (SSE) 817 3.8 -24.8°
Maximum altitude 21:14:47 78° 109° (ESE) 799 3.9 -24.8°
Drops below altitude 10° 21:20:04 10° 23° (NNE) 2,326 6.9 -25.3°
Sets 21:22:27 0° 22° (NNE) 3,253 7.8 -25.5°
